Weather History for Myrtle Beach, SC

Change the Weather History Date:

Wednesday, January 29, 2014

  Actual Average Record
Temperature  
Mean Temperature 26 °F -  
Max Temperature 28 °F 53 °F 75 °F (2002)
Min Temperature 23 °F 35 °F 23 °F (2014)
Degree Days  
Heating Degree Days 40    
Moisture  
Dew Point 20 °F    
Average Humidity 78    
Maximum Humidity 86    
Minimum Humidity 64    
Precipitation  
Precipitation 0.13 in - - ()
Sea Level Pressure  
Sea Level Pressure 30.21 in    
Wind  
Wind Speed 13 mph (North)    
Max Wind Speed 17 mph    
Max Gust Speed 25 mph    
Visibility 9 miles    
Events      
Averages and records for this station are not official NWS values.
T = Trace of Precipitation, MM = Missing Value Source: NWS Daily Summary

Daily Weather History Graph

Daily Weather History Graph

Search for Another Location

Airport:

Trip Planner

Search our weather history database for the weather conditions in past years. The results will help you decide how hot, cold, wet, or windy it might be!

Date:

Astronomy

Jan. 29, 2014 Rise Set
Actual Time 7:14 AM EST 5:43 PM EST
Civil Twilight 6:47 AM EST 6:10 PM EST
Nautical Twilight 6:17 AM EST 6:40 PM EST
Astronomical Twilight 5:48 AM EST 7:09 PM EST
Moon 5:48 AM EST (1/29) 4:41 PM EST (1/29)
Length of Visible Light 11h 22m
Length of Day
10h 29m
Waning Crescent, 2% of the Moon is Illuminated
Jan 29
Waning Crescent
Jan 30
New
Feb 6
First Quarter
Feb 14
Full
Feb 22
Last Quarter

Hourly Weather History & Observations

Time (EST) Temp. Windchill Dew Point Humidity Pressure Visibility Wind Dir Wind Speed Gust Speed Precip Events Conditions
12:15 AM 26.6 °F 16.2 °F 23.0 °F 86% 30.11 in 4.0 mi NNW 11.5 mph - 0.02 in   Overcast
12:35 AM 28.4 °F 17.5 °F 24.8 °F 86% 30.10 in 5.0 mi NNW 13.8 mph 18.4 mph 0.04 in   Overcast
12:55 AM 28.4 °F 18.0 °F 23.0 °F 80% 30.11 in 5.0 mi NNW 12.7 mph - 0.06 in   Overcast
1:15 AM 28.4 °F 18.5 °F 24.8 °F 86% 30.10 in 5.0 mi North 11.5 mph - 0.01 in   Overcast
1:35 AM 28.4 °F 17.0 °F 24.8 °F 86% 30.10 in 7.0 mi North 15.0 mph - 0.03 in   Overcast
1:55 AM 28.4 °F 17.5 °F 23.0 °F 80% 30.10 in 5.0 mi NNW 13.8 mph 21.9 mph 0.03 in   Overcast
2:15 AM 28.4 °F 16.2 °F 24.8 °F 86% 30.08 in 5.0 mi North 17.3 mph 21.9 mph 0.02 in   Overcast
2:35 AM 28.4 °F 19.1 °F 23.0 °F 80% 30.10 in 6.0 mi NNW 10.4 mph 18.4 mph 0.02 in   Overcast
2:55 AM 26.6 °F 14.3 °F 23.0 °F 86% 30.10 in 5.0 mi North 16.1 mph - 0.03 in   Overcast
3:15 AM 26.6 °F 15.2 °F 21.2 °F 80% 30.10 in 4.0 mi NNW 13.8 mph - N/A   Overcast
3:35 AM 26.6 °F 14.7 °F 19.4 °F 74% 30.10 in 9.0 mi NNW 15.0 mph 20.7 mph 0.01 in   Overcast
3:55 AM 24.8 °F 11.9 °F 19.4 °F 80% 30.11 in 10.0 mi NNW 16.1 mph 21.9 mph 0.01 in   Overcast
4:15 AM 24.8 °F 14.0 °F 19.4 °F 80% 30.10 in 10.0 mi North 11.5 mph 20.7 mph N/A   Overcast
4:35 AM 24.8 °F 12.9 °F 21.2 °F 86% 30.11 in 10.0 mi NNW 13.8 mph - N/A   Overcast
4:55 AM 24.8 °F 14.0 °F 19.4 °F 80% 30.11 in 10.0 mi NNW 11.5 mph - N/A   Overcast
5:15 AM 24.8 °F 11.5 °F 19.4 °F 80% 30.12 in 10.0 mi North 17.3 mph 20.7 mph N/A   Overcast
5:35 AM 24.8 °F 12.4 °F 19.4 °F 80% 30.15 in 10.0 mi NNW 15.0 mph 21.9 mph N/A   Overcast
5:53 AM 23.0 °F 10.6 °F 17.6 °F 80% 30.16 in 8.0 mi North 13.8 mph - N/A   Overcast
5:55 AM 23.0 °F 9.2 °F 17.6 °F 80% 30.15 in 10.0 mi North 17.3 mph 25.3 mph N/A   Overcast
6:53 AM 23.0 °F 10.1 °F 17.6 °F 80% 30.21 in 9.0 mi North 15.0 mph 21.9 mph N/A   Overcast
7:50 AM 23.0 °F 10.6 °F 17.6 °F 80% 30.22 in 10.0 mi North 13.8 mph 20.7 mph N/A   Overcast
8:55 AM 23.0 °F 12.4 °F 17.6 °F 80% 30.28 in 10.0 mi NNW 10.4 mph - N/A   Overcast
9:50 AM 24.8 °F 11.5 °F 17.6 °F 74% 30.29 in 10.0 mi North 17.3 mph 23.0 mph N/A   Partly Cloudy
10:50 AM 24.8 °F 11.9 °F 17.6 °F 74% 30.32 in 10.0 mi North 16.1 mph 23.0 mph N/A   Scattered Clouds
11:45 AM 26.6 °F 16.2 °F 17.6 °F 69% 30.32 in 10.0 mi North 11.5 mph - N/A   Scattered Clouds
12:45 PM 26.6 °F 14.7 °F 19.4 °F 74% 30.29 in 10.0 mi North 15.0 mph - N/A   Scattered Clouds
1:45 PM 26.6 °F 15.7 °F 19.4 °F 74% 30.29 in 10.0 mi North 12.7 mph - N/A   Scattered Clouds
2:50 PM 26.6 °F 13.8 °F 17.6 °F 69% 30.29 in 10.0 mi North 17.3 mph - N/A   Partly Cloudy
3:50 PM 28.4 °F 18.5 °F 17.6 °F 64% 30.32 in 10.0 mi NNW 11.5 mph - N/A   Overcast
4:45 PM 28.4 °F 17.5 °F 17.6 °F 64% 30.30 in 10.0 mi North 13.8 mph - N/A   Overcast
5:45 PM 28.4 °F 18.5 °F 17.6 °F 64% 30.32 in 10.0 mi North 11.5 mph - N/A   Clear
7:55 PM 26.6 °F 19.1 °F 21.2 °F 80% 30.34 in 10.0 mi North 6.9 mph - N/A   Clear
8:45 PM 26.6 °F 19.1 °F 19.4 °F 74% 30.37 in 10.0 mi North 6.9 mph - N/A   Overcast
9:45 PM 26.6 °F 19.1 °F 21.2 °F 80% 30.37 in 10.0 mi NNE 6.9 mph - N/A   Mostly Cloudy
10:55 PM 26.6 °F 19.1 °F 19.4 °F 74% 30.34 in 10.0 mi NNE 6.9 mph - N/A   Clear
11:15 PM 26.6 °F 19.1 °F 19.4 °F 74% 30.36 in 10.0 mi North 6.9 mph - N/A   Clear
11:35 PM 26.6 °F 19.1 °F 19.4 °F 74% 30.35 in 10.0 mi North 6.9 mph - N/A   Clear
11:55 PM 26.6 °F 17.5 °F 19.4 °F 74% 30.35 in 10.0 mi North 9.2 mph - N/A   Clear